Regional Weather Roundup
Issued by NWS Little Rock, AR

Home | Current Version | Previous Version | Graphics & Text | Print | Product List | Glossary On
Versions: 1 2 3 4 5 6 7 8 9 10 11 12 13 14 15 16 17 18 19 20 21 22 23 24 25 26 27 28 29 30 31 32 33 34 35 36 37 38 39 40 41 42 43 44 45 46 47 48 49 50
000
ASUS44 KLZK 232205
RWRLZK

WEATHER ROUNDUP FOR ARKANSAS
NATIONAL WEATHER SERVICE LITTLE ROCK AR
400 PM CST SUN NOV 23 2014

NOTE: "FAIR" INDICATES FEW OR NO CLOUDS BELOW 12,000 FEET WITH NO
SIGNIFICANT WEATHER AND/OR OBSTRUCTIONS TO VISIBILITY.

ARZ001-003-010-029-232300-
NORTHWEST ARKANSAS

CITY           SKY/WX    TMP DP  RH WIND       PRES   REMARKS
FAYETTEVILLE   MOSUNNY   62  55  77 S9        29.32R
FORT SMITH     MOSUNNY   70  53  54 SW17      29.30R
HARRISON       PTCLDY    60  55  83 SE9       29.31F
BENTONVILLE    PTSUNNY   64  54  68 S6        29.32R
ROGERS         CLOUDY    64  54  68 SW6       29.31R
SILOAM SPGS    PTSUNNY   64  52  63 S10       29.31S
HIGHFILL       PTSUNNY   64  55  72 S8        29.30R
SPRINGDALE     CLOUDY    64  55  72 SW8       29.33R
$$

ARZ004-005-016-232300-
NORTH CENTRAL ARKANSAS

CITY           SKY/WX    TMP DP  RH WIND       PRES   REMARKS
BATESVILLE     CLOUDY    59  57  94 S3        29.33F
FLIPPIN        CLOUDY    59  54  82 CALM      29.33S
MTN HOME       CLOUDY    58  57  97 CALM      29.32F
$$

ARZ040-041-232300-
WEST CENTRAL ARKANSAS

CITY           SKY/WX    TMP DP  RH WIND       PRES   REMARKS
MENA           PTSUNNY   68  59  73 SW5       29.35R
MOUNT IDA      PTSUNNY   65  58  78 VRB5      29.32R
$$

ARZ009-017-025-026-028-232300-
NORTHEAST ARKANSAS

CITY           SKY/WX    TMP DP  RH WIND       PRES   REMARKS
CORNING        LGT RAIN  57  57 100 S3        29.33F
JONESBORO      LGT RAIN  58  58 100 CALM      29.33F
NEWPORT        LGT RAIN  59  59 100 SW6       29.35S
WALNUT RIDGE   CLOUDY    57  55  94 S5        29.33S
BLYTHEVILLE    RAIN      64  58  80 VRB6G16   29.32F
$$

ARZ022-023-033-042-044-232300-
CENTRAL ARKANSAS

CITY           SKY/WX    TMP DP  RH WIND       PRES   REMARKS
LITTLE ROCK    MOCLDY    63  59  87 S5        29.35F
N LITTLE ROCK  MOCLDY    61  61 100 S6        29.35F
JACKSONVILLE   CLOUDY    62  61  99 SE6       29.34F
SEARCY         CLOUDY    61  59  93 S3        29.36F FOG
HOT SPRINGS    PTSUNNY   65  59  81 SW8       29.35S
RUSSELLVILLE   CLOUDY    63  59  87 E3        29.31S
CLINTON        CLOUDY    59  59 100 CALM      29.35S FOG
$$

ARZ036-232300-
EAST ARKANSAS

CITY           SKY/WX    TMP DP  RH WIND       PRES   REMARKS
WEST MEMPHIS   LGT RAIN  58  58 100 VRB5      29.34R FOG
$$

ARZ050-053-066-070-073-232300-
SOUTHWEST ARKANSAS

CITY           SKY/WX    TMP DP  RH WIND       PRES   REMARKS
ARKADELPHIA    MOCLDY    68  63  84 S10       29.36R
CAMDEN         MOSUNNY   70  59  68 NE12G17   29.37S
TEXARKANA      SUNNY     71  58  63 S14G23    29.36S
EL DORADO      SUNNY     69  60  73 S13       29.40R
DE QUEEN       SUNNY     71  57  61 SW12      29.33R
$$

ARZ056-057-069-232300-
SOUTHEAST ARKANSAS

CITY           SKY/WX    TMP DP  RH WIND       PRES   REMARKS
PINE BLUFF     CLOUDY    63  60  90 S8        29.38S
STUTTGART      CLOUDY    63  59  88 SW10      29.39R
MONTICELLO     PTSUNNY   65  61  87 S8        29.41S

$$





USA.gov is the U.S. government's official web portal to all federal, state and local government web resources and services.